Wind_Speed
19 19 20 20 19 20 21 21 21 22 23 23 23 22 22 22 22 23 24 25 25 26 26 26 26 27 27 28 28 29 30 29 30 30 30 31 31 32 33 34 34 36 37
19 20 20 20 20 20 20 20 21 21 21 22 22 22 22 22 21 22 23 23 24 24 24 24 25 26 27 27 27 27 28 29 29 29 29 29 30 32 33 34 35 36 37
19 20 20 20 20 20 21 21 21 21 22 22 22 22 22 21 20 20 20 21 21 21 22 23 24 25 25 25 25 26 27 27 27 28 29 30 31 32 33 34 35 35 36
19 20 20 21 21 21 21 22 22 23 23 22 23 23 22 22 21 21 21 21 21 21 22 23 23 23 23 24 25 25 26 26 26 27 29 30 31 32 33 33 33 33 33
19 20 20 21 21 21 22 22 22 22 23 22 22 22 22 22 22 22 23 22 22 22 22 22 22 22 23 23 24 24 24 25 26 27 29 30 30 30 31 31 31 31 31
20 20 21 21 21 22 23 22 22 22 22 23 22 23 23 23 23 23 23 22 22 22 22 22 23 23 23 23 23 23 24 25 26 27 28 28 29 29 29 29 30 30 29
21 21 21 21 21 21 21 21 21 21 20 21 21 21 21 21 22 22 21 21 21 21 21 22 21 21 22 22 23 23 24 25 25 26 26 27 27 27 28 28 28 27 27
20 20 20 20 20 21 21 21 20 19 20 19 19 19 19 19 20 20 21 21 21 21 21 21 21 21 22 22 22 22 23 24 24 25 25 26 26 26 26 25 25 24 24
18 18 18 19 20 19 19 19 19 20 20 19 19 18 18 18 18 18 19 19 20 20 20 20 21 21 21 21 22 22 23 24 24 24 24 25 24 24 23 22 22 21 21
17 17 17 17 18 17 17 17 17 17 17 18 18 17 17 17 17 17 17 17 18 18 19 19 20 20 20 21 21 22 23 23 23 23 23 22 22 21 20 19 19 19 18
15 14 14 15 16 16 16 16 15 15 15 16 16 17 17 17 16 17 16 16 17 18 19 20 19 19 20 20 21 21 21 22 22 21 20 20 19 17 17 17 17 16 16
12 12 12 12 12 13 13 13 14 14 13 14 15 15 15 16 16 15 16 17 17 18 19 19 19 19 19 20 20 20 21 20 19 19 18 17 16 16 15 15 15 15 14
9 9 10 9 9 10 10 11 11 12 13 13 13 13 13 14 14 14 14 16 16 17 18 18 18 18 18 19 19 18 18 18 17 16 15 15 14 14 14 14 14 13 13
7 7 8 8 8 8 9 10 9 10 10 11 11 11 11 11 12 12 13 13 15 15 16 16 17 17 17 16 16 16 15 15 14 14 14 13 13 13 13 12 12 12 11
5 6 6 6 7 7 7 8 8 7 8 8 9 9 10 10 10 11 11 12 12 12 13 14 14 14 13 13 13 13 13 12 12 12 12 12 12 11 11 11 10 9 9
4 5 5 6 7 6 6 6 6 6 6 6 6 6 7 7 7 7 8 9 9 10 11 11 11 11 11 10 10 10 10 11 11 11 10 10 10 10 10 9 8 8 7
3 4 5 5 5 5 6 5 5 5 4 4 4 3 3 4 4 5 5 6 7 8 8 8 8 8 8 8 8 9 9 9 9 9 9 9 9 9 9 8 7 6 5
3 3 4 5 5 5 5 4 4 3 2 2 2 1 1 1 2 2 3 4 5 5 6 6 6 6 6 7 7 8 8 8 8 7 7 7 8 7 7 6 5 4 4
4 5 5 5 5 5 5 4 4 4 4 3 3 3 2 2 2 2 2 3 3 4 4 4 5 5 6 6 6 7 6 6 6 6 6 6 6 5 5 5 4 4 3
7 7 7 7 7 7 7 6 6 6 5 5 5 5 5 5 4 4 4 5 5 5 5 5 5 5 5 5 5 5 5 5 5 5 5 5 5 4 4 4 4 3 3
10 10 9 9 9 9 9 8 8 8 7 7 7 7 7 7 7 7 7 7 7 7 6 6 6 7 7 6 6 6 6 5 5 5 5 5 5 4 4 4 4 4 4
12 12 11 11 10 10 10 10 10 10 10 9 9 9 9 9 9 9 9 9 9 9 8 8 9 9 8 8 8 8 7 7 6 6 6 5 5 5 5 5 5 5 5
13 13 13 13 12 12 12 12 12 11 11 11 11 11 11 12 12 11 11 11 11 11 11 11 10 10 10 10 10 10 9 9 8 8 7 6 6 6 6 5 5 6 6
14 14 14 14 15 14 14 14 14 13 13 13 13 13 12 12 12 13 12 12 12 12 12 12 12 12 12 12 12 11 11 10 10 9 8 8 7 7 7 7 7 7 8
15 15 15 16 16 16 16 16 15 15 15 15 14 13 13 13 13 13 13 13 13 13 13 13 13 13 13 12 12 12 11 10 10 9 9 8 8 8 8 9 9 9 10
16 16 16 17 17 17 16 16 16 16 15 15 14 14 13 13 13 13 13 13 13 13 13 13 13 13 12 12 12 12 11 10 10 9 9 9 9 9 10 10 11 11 12
Wind_Direction
260 258 256 255 254 251 247 244 244 245 245 245 247 249 249 248 249 246 244 242 241 242 245 245 248 252 254 258 261 264 266 267 270 272 274 276 279 281 283 285 286 288 290
258 255 254 253 251 248 245 242 242 242 243 244 245 247 245 243 243 242 241 242 242 243 245 246 250 253 255 259 262 265 268 270 273 274 277 279 281 283 285 287 289 290 292
258 254 252 250 249 247 243 242 241 241 244 244 244 244 242 239 239 239 240 243 244 246 249 251 253 256 259 262 265 269 271 274 276 277 279 281 282 284 286 289 290 292 293
259 255 250 249 248 246 244 242 241 241 243 244 242 239 239 238 239 240 243 245 245 248 252 254 257 259 262 265 268 271 274 276 279 281 282 283 285 287 288 290 292 294 295
259 255 251 249 246 244 243 243 241 241 242 243 241 239 239 240 243 246 246 248 249 250 253 256 258 260 262 267 271 273 276 278 280 282 284 285 287 288 290 292 293 295 296
260 255 253 251 248 245 244 244 241 240 242 243 242 242 241 242 244 246 246 247 251 252 255 259 261 263 265 269 272 275 279 280 282 284 285 286 287 289 292 293 294 295 296
262 256 253 251 248 247 247 245 244 242 242 244 244 242 241 243 244 246 249 252 255 257 259 260 262 264 267 271 274 278 280 282 283 285 287 288 289 291 293 294 296 297 298
263 257 252 250 246 244 246 247 246 242 241 241 240 241 242 243 244 248 252 254 256 257 259 260 262 266 270 273 276 279 282 283 285 288 289 290 292 294 295 296 297 298 299
262 258 252 248 245 245 245 246 246 244 241 240 242 243 244 244 247 250 252 254 255 257 260 263 266 271 274 276 279 281 283 286 289 290 292 293 294 295 296 297 299 300 301
260 257 253 247 244 243 243 243 243 241 240 240 241 242 244 244 248 251 254 257 258 260 265 268 270 273 275 277 280 283 285 288 290 292 293 294 295 296 297 299 300 301 302
257 253 247 243 242 239 239 238 237 237 240 240 241 243 245 248 251 253 257 260 263 267 268 269 271 274 277 282 284 286 287 289 291 291 292 295 296 297 300 301 301 303 303
253 249 249 244 236 233 235 234 235 235 238 242 244 246 248 251 254 255 257 261 265 267 269 270 273 276 280 283 286 287 288 289 289 291 293 295 297 299 300 301 301 303 304
246 241 242 241 230 228 230 232 235 235 237 240 242 245 248 251 254 257 259 263 268 270 270 273 277 279 282 284 287 289 290 290 291 292 294 296 298 300 300 301 301 304 305
236 232 231 230 224 222 226 229 232 235 237 240 242 245 246 251 255 256 262 266 268 271 274 277 280 282 284 287 288 290 290 291 293 294 296 298 300 301 301 301 303 305 307
231 223 217 220 218 219 223 225 226 231 237 239 242 246 249 253 257 260 264 271 276 280 281 282 283 285 288 290 291 291 293 295 296 298 298 300 302 304 305 305 306 307 311
214 211 210 211 210 214 215 213 220 228 232 237 241 244 250 255 261 270 277 283 285 286 287 287 288 289 290 292 294 297 298 299 300 301 301 303 305 307 307 308 309 310 314
184 189 193 196 199 200 202 204 205 211 218 220 225 236 248 260 272 281 285 288 291 294 295 295 295 295 296 299 301 302 303 304 305 306 307 309 312 312 312 314 316 317 320
160 166 173 176 177 176 183 189 188 182 180 178 181 203 243 278 304 306 306 308 308 310 310 309 309 310 309 309 308 308 310 312 314 316 316 318 321 321 321 323 324 325 330
126 131 134 136 144 150 153 151 144 133 122 111 101 94 84 65 46 24 3 357 354 351 346 341 338 333 325 321 320 320 322 325 326 328 330 330 331 333 335 337 338 342 346
106 112 117 120 121 126 127 124 121 116 109 102 95 86 79 76 73 63 51 44 38 32 25 16 7 358 352 347 345 344 343 344 346 348 351 353 354 354 357 360 1 2 1
101 104 108 111 111 113 115 113 110 107 103 98 92 86 82 80 75 68 62 56 49 43 37 33 29 26 22 20 17 14 11 10 11 11 13 14 13 14 17 17 14 9 2
99 99 102 104 106 107 108 106 105 102 99 95 91 89 85 81 76 70 65 60 56 53 49 45 44 41 38 36 34 33 32 31 29 27 27 29 29 27 23 18 14 9 3
96 96 97 99 101 103 103 103 103 102 98 93 91 89 86 82 77 73 69 65 61 58 56 53 50 48 46 45 43 42 41 40 40 42 41 39 34 30 24 17 10 3 354
96 97 97 97 98 99 100 100 99 98 95 94 92 90 86 82 78 73 69 65 62 60 58 56 54 52 50 48 46 46 46 45 45 43 38 33 27 21 14 6 358 352 346
97 98 98 97 98 97 97 96 95 94 93 92 90 87 84 81 77 72 68 65 62 60 58 56 54 52 50 47 46 44 43 40 36 32 28 23 17 10 1 354 348 343 338
98 98 99 99 98 96 95 93 92 92 91 89 87 84 81 79 76 71 68 65 62 60 56 53 50 47 45 42 40 37 34 31 27 22 17 11 4 357 351 346 341 337 334
Height
5742 5743 5743 5744 5744 5745 5747 5748 5750 5752 5753 5755 5757 5759 5760 5762 5764 5766 5768 5771 5773 5775 5776 5778 5780 5781 5782 5783 5784 5784 5784 5784 5784 5783 5782 5780 5779 5778 5776 5774 5771 5769 5766
5737 5738 5738 5738 5739 5740 5741 5743 5744 5746 5748 5750 5751 5753 5755 5757 5759 5761 5763 5765 5767 5769 5771 5772 5773 5774 5775 5776 5777 5777 5777 5776 5776 5775 5774 5772 5771 5770 5767 5765 5763 5760 5757
5732 5732 5733 5733 5734 5735 5736 5738 5739 5741 5743 5745 5746 5748 5750 5752 5754 5756 5758 5760 5761 5763 5765 5766 5767 5768 5769 5769 5770 5770 5770 5769 5768 5767 5766 5765 5763 5761 5759 5757 5754 5751 5748
5727 5727 5728 5728 5729 5730 5731 5733 5734 5736 5737 5739 5741 5743 5745 5747 5749 5751 5753 5755 5756 5758 5759 5760 5761 5762 5762 5763 5763 5763 5762 5762 5761 5760 5759 5757 5755 5753 5751 5748 5745 5742 5740
5722 5722 5722 5723 5724 5725 5726 5727 5728 5730 5732 5734 5736 5738 5740 5742 5744 5746 5748 5749 5751 5752 5753 5754 5755 5756 5756 5756 5756 5756 5755 5755 5754 5753 5751 5749 5747 5745 5743 5740 5737 5734 5731
5716 5716 5717 5718 5718 5719 5721 5722 5723 5725 5726 5729 5731 5733 5734 5736 5738 5740 5742 5744 5745 5746 5748 5749 5749 5750 5750 5750 5750 5749 5749 5748 5747 5745 5743 5742 5740 5737 5735 5732 5729 5727 5724
5710 5710 5711 5712 5713 5714 5715 5717 5718 5720 5722 5723 5725 5727 5729 5731 5733 5735 5737 5738 5740 5741 5742 5743 5743 5743 5744 5744 5743 5743 5742 5741 5740 5738 5736 5734 5732 5730 5727 5725 5722 5719 5716
5704 5704 5705 5706 5707 5708 5710 5711 5713 5714 5716 5718 5720 5722 5724 5726 5728 5730 5732 5733 5734 5735 5736 5737 5738 5738 5738 5738 5737 5737 5736 5735 5733 5731 5730 5728 5725 5723 5720 5718 5715 5713 5710
5698 5698 5699 5700 5702 5703 5705 5706 5708 5710 5712 5714 5716 5718 5719 5721 5723 5725 5727 5728 5729 5730 5731 5731 5732 5732 5732 5732 5731 5731 5730 5728 5727 5725 5723 5721 5719 5716 5714 5712 5710 5707 5705
5692 5693 5694 5695 5697 5699 5700 5702 5704 5706 5707 5709 5711 5713 5715 5717 5719 5720 5722 5723 5724 5725 5726 5726 5726 5726 5726 5726 5725 5724 5723 5722 5720 5719 5717 5715 5713 5711 5709 5707 5705 5703 5700
5687 5688 5689 5691 5693 5694 5696 5698 5700 5702 5704 5706 5708 5709 5712 5713 5715 5716 5717 5719 5719 5720 5721 5721 5721 5721 5721 5720 5719 5718 5717 5716 5715 5713 5711 5709 5707 5706 5704 5702 5700 5698 5696
5684 5685 5686 5688 5689 5691 5693 5695 5697 5699 5701 5703 5705 5707 5708 5710 5711 5712 5713 5714 5715 5715 5716 5716 5716 5715 5715 5714 5714 5713 5712 5710 5709 5708 5706 5705 5703 5701 5700 5698 5696 5694 5692
5681 5682 5684 5685 5687 5688 5690 5692 5694 5696 5698 5700 5701 5703 5705 5706 5707 5708 5709 5710 5710 5711 5711 5711 5711 5710 5710 5709 5709 5708 5707 5706 5705 5703 5702 5700 5699 5698 5696 5694 5693 5691 5689
5680 5681 5682 5684 5685 5687 5689 5691 5692 5694 5696 5697 5699 5700 5702 5703 5704 5705 5705 5706 5706 5707 5707 5707 5706 5706 5705 5705 5704 5703 5702 5702 5700 5699 5698 5697 5695 5694 5693 5691 5689 5688 5686
5679 5680 5681 5683 5684 5686 5687 5689 5691 5692 5694 5695 5697 5698 5699 5700 5701 5702 5702 5703 5703 5703 5703 5703 5702 5702 5702 5701 5701 5700 5699 5698 5697 5696 5695 5693 5692 5691 5690 5688 5687 5685 5684
5678 5679 5680 5682 5684 5685 5687 5688 5690 5691 5692 5694 5695 5696 5697 5698 5699 5699 5700 5700 5700 5700 5700 5700 5699 5699 5699 5698 5698 5697 5696 5695 5694 5693 5692 5691 5689 5688 5687 5686 5684 5683 5682
5678 5679 5680 5682 5683 5685 5686 5688 5689 5691 5692 5693 5694 5695 5696 5697 5697 5698 5698 5698 5698 5698 5698 5697 5697 5697 5696 5696 5695 5694 5693 5692 5691 5690 5689 5688 5687 5686 5685 5683 5682 5681 5680
5678 5679 5681 5682 5683 5685 5686 5688 5690 5691 5692 5693 5694 5695 5695 5696 5696 5697 5697 5697 5697 5697 5696 5696 5695 5695 5694 5694 5693 5692 5691 5690 5689 5688 5687 5686 5685 5684 5683 5682 5681 5680 5679
5680 5680 5682 5683 5684 5686 5687 5689 5690 5692 5693 5694 5695 5695 5696 5696 5696 5696 5696 5697 5696 5696 5695 5695 5694 5694 5693 5692 5692 5691 5690 5688 5687 5686 5685 5684 5683 5682 5681 5681 5680 5679 5678
5682 5682 5683 5685 5686 5687 5689 5690 5692 5693 5694 5695 5696 5696 5697 5697 5697 5697 5697 5697 5696 5696 5695 5695 5694 5693 5692 5692 5690 5689 5688 5687 5686 5685 5684 5683 5682 5682 5681 5680 5679 5679 5678
5684 5685 5686 5687 5688 5690 5691 5692 5694 5695 5696 5697 5697 5698 5698 5698 5698 5698 5698 5698 5697 5697 5696 5695 5694 5694 5692 5691 5690 5689 5688 5687 5686 5685 5684 5683 5682 5682 5681 5680 5679 5679 5678
5688 5689 5690 5690 5691 5692 5693 5695 5696 5697 5698 5699 5699 5700 5700 5700 5700 5700 5700 5699 5699 5698 5697 5696 5695 5694 5693 5692 5691 5690 5688 5687 5686 5685 5685 5684 5683 5682 5681 5681 5680 5679 5678
5692 5693 5693 5694 5695 5695 5696 5697 5699 5700 5700 5701 5702 5702 5702 5703 5703 5703 5702 5702 5701 5700 5699 5698 5697 5696 5695 5693 5692 5691 5690 5689 5688 5687 5686 5685 5684 5683 5682 5681 5680 5679 5678
5696 5697 5697 5698 5699 5700 5700 5701 5702 5703 5704 5704 5705 5705 5706 5706 5706 5705 5705 5704 5704 5703 5702 5701 5699 5698 5697 5696 5694 5693 5692 5691 5689 5688 5687 5686 5685 5684 5683 5682 5681 5679 5678
5700 5701 5702 5703 5703 5704 5705 5706 5706 5707 5707 5708 5708 5709 5709 5709 5709 5708 5708 5707 5706 5705 5704 5703 5702 5701 5699 5698 5697 5695 5694 5693 5691 5690 5689 5688 5686 5685 5684 5682 5681 5679 5677
5705 5705 5706 5707 5708 5709 5709 5710 5711 5711 5711 5712 5712 5712 5712 5712 5712 5711 5711 5710 5709 5708 5707 5706 5705 5703 5702 5700 5699 5697 5696 5694 5693 5691 5690 5688 5687 5685 5684 5682 5680 5678 5676